Location: Dattensoll
(49.9928°N, 9.8954°E)
Time: 10:33:23
(UTC+00:00)

Cosmos 1238 Rocket - Pass Details

Date: 19 May 2025
Orbit: 356 x 776 km, 82.9° (Epoch: 23 June)

Event Time Altitude Azimuth Distance (km) Brightness Sun altitude
Exits shadow 21:25:02 23° 198° (SSW) 1,070 3.9 -15.8°
Maximum altitude 21:27:10 74° 279° (W) 488 2.6 -15.9°
Drops below altitude 10° 21:30:28 10° 6° (N) 1,528 6.0 -16.2°
Sets 21:32:23 0° 8° (N) 2,345 7.0 -16.3°
